This demonstration page uses our WeatherBlox Daily Observations layout. Learn more.

Left ArrowRight Arrow

38.80484, -77.04692

Hourly Observations for September 3, 2020

Temp ( °F °C ) Dew Point ( °F °C ) Humidity (%) Winds ( mph kmh ) Pressure ( in mb ) Visibility ( mi km ) Precip ( " mm )
12:52 am 00:52 Partly Cloudy 79 26.1 76 24.4 90 90 SW 3 6 29.86 1011 10 16 N/A
1:52 am 01:52 Partly Cloudy 78 25.6 76 24.4 93 93 SW 5 7 29.86 1011 10 16 N/A
2:52 am 02:52 Partly Cloudy 78 25.6 76 24.4 93 93 N N/A 29.86 1011 9 14 N/A
3:52 am 03:52 Partly Cloudy 78 25.6 74 23.3 87 87 N N/A 29.85 1011 10 16 N/A
4:52 am 04:52 Partly Cloudy 77 25 72 22.2 85 85 N N/A 29.86 1011 10 16 N/A
5:52 am 05:52 Mostly Clear 77 25 74 23.3 90 90 N N/A 29.87 1012 9 14 N/A
6:52 am 06:52 Mostly Sunny 77 25 73 22.8 88 88 N N/A 29.87 1012 10 16 N/A
7:52 am 07:52 Partly Cloudy 80 26.7 74 23.3 82 82 N N/A 29.88 1012 10 16 N/A
8:52 am 08:52 Mostly Cloudy 80 26.7 74 23.3 82 82 N N/A 29.87 1012 10 16 N/A
9:52 am 09:52 Mostly Cloudy 84 28.9 71 21.7 65 65 N N/A 29.87 1012 10 16 N/A
10:52 am 10:52 Mostly Cloudy 84 28.9 71 21.7 65 65 ESE 3 6 29.86 1011 10 16 N/A
11:52 am 11:52 Mostly Cloudy 86 30 72 22.2 63 63 SSE 10 17 29.85 1011 10 16 N/A
12:52 pm 12:52 Partly Cloudy 88 31.1 74 23.3 63 63 SSE 10 17 29.82 1010 10 16 N/A
1:52 pm 13:52 Partly Cloudy 88 31.1 74 23.3 63 63 SSE 17 28 29.81 1009 10 16 N/A
2:52 pm 14:52 Partly Cloudy 89 31.7 74 23.3 61 61 S 15 24 29.78 1009 10 16 N/A
3:52 pm 15:52 Partly Cloudy 91 32.8 75 23.9 59 59 S 13 20 29.74 1007 10 16 N/A
4:52 pm 16:52 Partly Cloudy 90 32.2 75 23.9 62 62 SSW 22 35 29.70 1006 10 16 N/A
5:09 pm 17:09 Partly Cloudy with Nearby Thunderstorms 90 32.2 76 24.4 63 63 SSW 17 28 29.70 1006 10 16 N/A
5:20 pm 17:20 Partly Cloudy with Thunderstorms 91 32.8 75 23.9 59 59 SSW 17 28 29.70 1006 10 16 N/A
5:30 pm 17:30 Mostly Cloudy with Thunderstorms 91 32.8 75 23.9 59 59 SSW 17 28 29.71 1006 10 16 N/A
5:52 pm 17:52 Mostly Cloudy with Thunderstorms 84 28.9 75 23.9 74 74 N 12 19 29.74 1007 10 16 N/A
6:00 pm 18:00 Mostly Cloudy with Thunderstorms 83 28.3 75 23.9 77 77 NNW 16 26 29.74 1007 10 16 N/A
6:18 pm 18:18 Mostly Cloudy with Nearby Thunderstorms 78 25.6 75 23.9 90 90 N 13 20 29.75 1007 10 16 N/A
6:35 pm 18:35 Mostly Cloudy 78 25.6 75 23.9 90 90 NNE 8 13 29.75 1007 10 16 N/A
6:52 pm 18:52 Cloudy with Nearby Thunderstorms 80 26.7 75 23.9 85 85 ENE 8 13 29.74 1007 10 16 N/A
7:05 pm 19:05 Cloudy with Thunderstorms 80 26.7 76 24.4 87 87 N N/A 29.75 1007 9 14 0.00 0.00
7:10 pm 19:10 Cloudy with Strong Thunderstorms 79 26.1 76 24.4 90 90 N N/A 29.76 1008 2 2 0.01 0.25
7:17 pm 19:17 Cloudy with Strong Thunderstorms 79 26.1 76 24.4 90 90 N 5 7 29.76 1008 1 1 0.12 3.05
7:24 pm 19:24 Cloudy with Thunderstorms 78 25.6 76 24.4 93 93 N 5 7 29.76 1008 3 5 0.19 4.83
7:52 pm 19:52 Cloudy with Thunderstorms 78 25.6 76 24.4 93 93 ENE 5 7 29.75 1007 5 8 0.29 7.37
8:07 pm 20:07 Mostly Cloudy 78 25.6 76 24.4 93 93 ENE 3 6 29.74 1007 10 16 0.00 0.00
8:52 pm 20:52 Cloudy 79 26.1 76 24.4 90 90 N 3 6 29.76 1008 10 16 0.00 0.00
9:02 pm 21:02 Cloudy with Heavy Rain 79 26.1 77 25 94 94 E 5 7 29.77 1008 5 8 0.02 0.51
9:20 pm 21:20 Cloudy 78 25.6 76 24.4 93 93 N N/A 29.77 1008 10 16 0.08 2.03
9:52 pm 21:52 Cloudy 79 26.1 77 25 94 94 NNE 5 7 29.78 1008 10 16 0.08 2.03
10:52 pm 22:52 Mostly Cloudy 79 26.1 77 25 94 94 N N/A 29.78 1008 10 16 N/A
11:19 pm 23:19 Cloudy with Light Rain 79 26.1 77 25 94 94 NNW 13 20 29.80 1009 5 8 0.00 0.00
11:52 pm 23:52 Cloudy 78 25.6 75 23.9 90 90 NW 6 9 29.79 1009 10 16 0.01 0.25

Powered by AerisWeather